tititudorancea.com
Station Historical Data
Daily Summary for March 11, 2018 Units:  Metric    English   Both
« Previous Day
Next Day »
Daily Weekly Monthly Yearly Custom
  High: Low: Average:
Temperature: -17.8 °C 10.6 °C 18.2 °C
Dew Point: -17.8 °C 7.4 °C 10.4 °C
Humidity: Humidity % 44 % 61 %
Wind Speed: 0 km/h 0 km/h 10.3 km/h
Wind Gust: 0 km/h - -
Wind:- - SSW
Pressure: 0 hPa 1018.2 hPa -
Precipitation: 0 mm    
Historical Graphs
 
 
Ararat weather Find more about Weather in Ararat, AU


 



 


Tabular Data for March 11, 2018
Time Temperature Dew Point Pressure Wind Wind Speed Wind Gust Humidity Rainfall Rate (Hourly)
-17.8 °C -17.8 °C 0 hPa Calm     Humidity % 0 mm
00:04 19.9 °C 7.7 °C 1019.9 hPa South 4 km/h 5.6 km/h 45 % 0 mm
00:09 20.1 °C 7.4 °C 1019.9 hPa South 2.1 km/h 3.7 km/h 44 % 0 mm
00:14 20.2 °C 7.5 °C 1019.9 hPa South 2.3 km/h 3.7 km/h 44 % 0 mm
00:19 20.1 °C 7.4 °C 1019.9 hPa Calm     44 % 0 mm
00:24 19.9 °C 7.6 °C 1019.9 hPa South 0.8 km/h 3.7 km/h 45 % 0 mm
00:29 19.5 °C 7.6 °C 1019.9 hPa Calm     46 % 0 mm
00:34 19.3 °C 7.4 °C 1019.9 hPa South 1.6 km/h 3.7 km/h 46 % 0 mm
00:39 19.3 °C 7.4 °C 1019.9 hPa Calm     46 % 0 mm
00:44 19.2 °C 7.6 °C 1019.9 hPa Calm     47 % 0 mm
00:49 18.9 °C 7.4 °C 1019.9 hPa South 0.8 km/h 1.9 km/h 47 % 0 mm
00:54 19 °C 7.4 °C 1019.9 hPa South 1.3 km/h 3.7 km/h 47 % 0 mm
00:59 18.9 °C 7.7 °C 1019.5 hPa Calm     48 % 0 mm
01:04 18.9 °C 7.6 °C 1019.5 hPa Calm     48 % 0 mm
01:09 18.7 °C 7.8 °C 1019.5 hPa Calm     49 % 0 mm
01:14 18.6 °C 7.9 °C 1019.5 hPa South 4 km/h 5.6 km/h 50 % 0 mm
01:19 18.7 °C 7.7 °C 1019.5 hPa South 4 km/h 6.4 km/h 49 % 0 mm
01:24 18.8 °C 7.8 °C 1019.5 hPa North 1.6 km/h 3.7 km/h 49 % 0 mm
01:29 18.9 °C 7.9 °C 1019.5 hPa Calm     49 % 0 mm
01:34 18.9 °C 7.9 °C 1019.5 hPa Calm     49 % 0 mm
01:39 18.8 °C 7.6 °C 1019.5 hPa Calm     48 % 0 mm
01:44 18.8 °C 7.6 °C 1019.5 hPa Calm     48 % 0 mm
01:49 18.9 °C 7.6 °C 1019.5 hPa Calm     48 % 0 mm
01:54 18.8 °C 7.6 °C 1019.5 hPa Calm     48 % 0 mm
01:59 18.8 °C 7.8 °C 1019.2 hPa Calm     49 % 0 mm
02:04 18.7 °C 7.8 °C 1019.2 hPa Calm     49 % 0 mm
02:09 18.4 °C 7.8 °C 1019.5 hPa South 3.9 km/h 5.6 km/h 50 % 0 mm
02:14 18.3 °C 7.9 °C 1019.5 hPa North 2.3 km/h 5.6 km/h 51 % 0 mm
02:19 18.3 °C 7.9 °C 1019.5 hPa South 3.5 km/h 5.6 km/h 51 % 0 mm
02:24 18.2 °C 7.9 °C 1019.5 hPa North 1.4 km/h 3.7 km/h 51 % 0 mm
02:29 18.3 °C 7.9 °C 1019.5 hPa Calm     51 % 0 mm
02:34 18.3 °C 7.7 °C 1019.5 hPa Calm     50 % 0 mm
02:39 18.1 °C 7.8 °C 1019.5 hPa Calm     51 % 0 mm
02:44 17.8 °C 7.8 °C 1019.2 hPa Calm     52 % 0 mm
02:49 17.6 °C 7.9 °C 1019.2 hPa Calm     53 % 0 mm
02:54 17.6 °C 7.6 °C 1019.2 hPa Calm     52 % 0 mm
02:59 17.3 °C 7.7 °C 1019.2 hPa Calm     53 % 0 mm
03:04 17.2 °C 7.8 °C 1019.2 hPa Calm     54 % 0 mm
03:09 17 °C 7.6 °C 1019.2 hPa Calm     54 % 0 mm
03:14 16.8 °C 8 °C 1019.2 hPa Calm     56 % 0 mm
03:19 16.7 °C 7.8 °C 1019.2 hPa Calm     56 % 0 mm
03:24 16.5 °C 7.9 °C 1019.2 hPa Calm     57 % 0 mm
03:29 16.4 °C 7.8 °C 1019.2 hPa Calm     57 % 0 mm
03:34 16.2 °C 7.9 °C 1019.2 hPa Calm     58 % 0 mm
03:39 16.1 °C 7.8 °C 1019.2 hPa Calm     58 % 0 mm
03:44 16 °C 7.7 °C 1018.8 hPa Calm     58 % 0 mm
03:49 15.9 °C 7.9 °C 1018.8 hPa Calm     59 % 0 mm
03:54 15.7 °C 7.7 °C 1018.8 hPa Calm     59 % 0 mm
03:59 15.4 °C 7.4 °C 1018.8 hPa Calm     59 % 0 mm
04:04 15.3 °C 7.6 °C 1018.8 hPa Calm     60 % 0 mm
04:09 15.1 °C 7.7 °C 1018.8 hPa Calm     61 % 0 mm
04:14 15 °C 7.8 °C 1018.8 hPa Calm     62 % 0 mm
04:19 14.9 °C 7.7 °C 1018.5 hPa Calm     62 % 0 mm
04:24 14.9 °C 7.7 °C 1018.5 hPa Calm     62 % 0 mm
04:29 14.9 °C 7.9 °C 1018.5 hPa Calm     63 % 0 mm
04:34 14.9 °C 7.9 °C 1018.5 hPa Calm     63 % 0 mm
04:39 14.9 °C 7.9 °C 1018.5 hPa Calm     63 % 0 mm
04:44 14.9 °C 7.9 °C 1018.5 hPa Calm     63 % 0 mm
04:49 15.1 °C 7.9 °C 1018.5 hPa Calm     62 % 0 mm
04:54 15.2 °C 8 °C 1018.5 hPa Calm     62 % 0 mm
04:59 15.2 °C 8 °C 1018.5 hPa Calm     62 % 0 mm
05:04 15.3 °C 7.8 °C 1018.5 hPa Calm     61 % 0 mm
05:09 15.3 °C 8.1 °C 1018.5 hPa Calm     62 % 0 mm
05:14 15.4 °C 8.2 °C 1018.5 hPa Calm     62 % 0 mm
05:19 15.4 °C 7.9 °C 1018.2 hPa Calm     61 % 0 mm
05:24 15.5 °C 8 °C 1018.2 hPa Calm     61 % 0 mm
05:29 15.4 °C 7.7 °C 1018.2 hPa Calm     60 % 0 mm
05:34 15.6 °C 7.8 °C 1018.5 hPa Calm     60 % 0 mm
05:39 15.6 °C 7.9 °C 1018.5 hPa Calm     60 % 0 mm
05:44 15.5 °C 7.8 °C 1018.5 hPa Calm     60 % 0 mm
05:49 15.4 °C 7.9 °C 1018.5 hPa Calm     61 % 0 mm
05:54 15.3 °C 7.8 °C 1018.5 hPa Calm     61 % 0 mm
05:59 15.2 °C 8 °C 1018.5 hPa Calm     62 % 0 mm
06:04 15 °C 7.8 °C 1018.5 hPa Calm     62 % 0 mm
06:09 14.9 °C 7.9 °C 1018.5 hPa Calm     63 % 0 mm
06:14 14.9 °C 7.9 °C 1018.5 hPa Calm     63 % 0 mm
06:19 14.9 °C 7.9 °C 1018.5 hPa Calm     63 % 0 mm
06:24 14.9 °C 7.7 °C 1018.8 hPa Calm     62 % 0 mm
06:29 14.9 °C 7.7 °C 1018.8 hPa Calm     62 % 0 mm
06:34 14.8 °C 7.6 °C 1018.8 hPa Calm     62 % 0 mm
06:39 14.5 °C 7.8 °C 1018.8 hPa Calm     64 % 0 mm
06:44 14.3 °C 7.6 °C 1019.2 hPa Calm     64 % 0 mm
06:49 13.9 °C 7.4 °C 1019.2 hPa Calm     65 % 0 mm
06:54 13.6 °C 7.6 °C 1019.2 hPa North 8.2 km/h 9.7 km/h 67 % 0 mm
06:59 13.4 °C 7.8 °C 1019.5 hPa North 4.8 km/h 7.4 km/h 69 % 0 mm
07:04 13.4 °C 7.8 °C 1019.5 hPa South 0.2 km/h 1.9 km/h 69 % 0 mm
07:09 13.4 °C 7.8 °C 1019.5 hPa South 5 km/h 8 km/h 69 % 0 mm
07:14 13.6 °C 8 °C 1019.9 hPa South 8 km/h 11.1 km/h 69 % 0 mm
07:19 14.1 °C 7.8 °C 1019.9 hPa South 9.3 km/h 11.1 km/h 66 % 0 mm
07:24 15.6 °C 7.9 °C 1019.9 hPa SSW 9.2 km/h 13 km/h 60 % 0 mm
07:29 17 °C 7.6 °C 1020.2 hPa SSW 11.3 km/h 14.8 km/h 54 % 0 mm
07:34 17.5 °C 7.6 °C 1020.2 hPa SSW 11.7 km/h 18.5 km/h 52 % 0 mm
07:39 17.6 °C 7.9 °C 1020.5 hPa SW 13 km/h 18.5 km/h 53 % 0 mm
07:44 17.4 °C 8.6 °C 1020.5 hPa SSW 12.1 km/h 18.5 km/h 56 % 0 mm
07:49 17.3 °C 8.9 °C 1020.5 hPa South 7.9 km/h 12.9 km/h 58 % 0 mm
07:54 17.1 °C 9.3 °C 1020.9 hPa South 5.1 km/h 6.4 km/h 60 % 0 mm
07:59 17 °C 9.9 °C 1020.9 hPa South 6.4 km/h 11.1 km/h 63 % 0 mm
08:04 16.8 °C 9.7 °C 1020.9 hPa South 5.1 km/h 9.3 km/h 63 % 0 mm
08:09 16.4 °C 9.3 °C 1021.2 hPa South 6.6 km/h 13 km/h 63 % 0 mm
08:14 16.2 °C 9.3 °C 1021.2 hPa SSE 2.7 km/h 14.8 km/h 64 % 0 mm
08:19 16.1 °C 9.8 °C 1021.6 hPa SSE 4.2 km/h 13 km/h 66 % 0 mm
08:24 16.1 °C 10.4 °C 1021.6 hPa South 9 km/h 14.8 km/h 69 % 0 mm
08:29 16.1 °C 11.7 °C 1021.6 hPa South 10.1 km/h 16.7 km/h 75 % 0 mm
08:34 16 °C 12.3 °C 1021.6 hPa North 10.8 km/h 16.7 km/h 79 % 0 mm
08:39 15.8 °C 12.9 °C 1021.6 hPa North 13.8 km/h 24.1 km/h 83 % 0 mm
08:44 15.8 °C 13.1 °C 1021.6 hPa North 16.7 km/h 16.7 km/h 84 % 0 mm
08:49 15.9 °C 13.4 °C 1021.9 hPa South 11.9 km/h 20.4 km/h 85 % 0 mm
08:54 16.1 °C 13.6 °C 1021.6 hPa North 12.1 km/h 16.7 km/h 85 % 0 mm
08:59 16.2 °C 13.5 °C 1021.9 hPa North 10 km/h 13 km/h 84 % 0 mm
09:04 16.4 °C 13.7 °C 1021.9 hPa SSW 14.6 km/h 18.5 km/h 84 % 0 mm
09:09 16.5 °C 13.8 °C 1021.9 hPa South 9.3 km/h 16.7 km/h 84 % 0 mm
09:14 16.7 °C 13.9 °C 1021.9 hPa South 13.7 km/h 18.5 km/h 84 % 0 mm
09:19 16.8 °C 14.1 °C 1021.9 hPa South 11.3 km/h 17.7 km/h 84 % 0 mm
09:24 17.1 °C 14.3 °C 1021.9 hPa North 9 km/h 14.5 km/h 84 % 0 mm
09:29 17.2 °C 14.5 °C 1021.9 hPa North 13.5 km/h 18.5 km/h 84 % 0 mm
09:34 17.3 °C 14.4 °C 1021.9 hPa South 8.9 km/h 11.1 km/h 83 % 0 mm
09:39 17.4 °C 14.5 °C 1021.9 hPa SSW 12.9 km/h 18.5 km/h 83 % 0 mm
09:44 17.7 °C 14.8 °C 1021.9 hPa North 11.9 km/h 16.7 km/h 83 % 0 mm
09:49 18.3 °C 15.2 °C 1021.9 hPa South 6.1 km/h 11.1 km/h 82 % 0 mm
09:54 18.9 °C 15.2 °C 1021.9 hPa SSW 17.5 km/h 20.4 km/h 79 % 0 mm
09:59 19 °C 14.9 °C 1021.9 hPa SW 16.9 km/h 18.5 km/h 77 % 0 mm
10:04 19.1 °C 14.9 °C 1021.9 hPa SSW 17.5 km/h 20.4 km/h 77 % 0 mm
10:09 19.1 °C 15 °C 1021.9 hPa SSW 12.1 km/h 25.7 km/h 77 % 0 mm
10:14 19.4 °C 15.1 °C 1021.9 hPa South 11.7 km/h 14.8 km/h 76 % 0 mm
10:19 19.1 °C 14.7 °C 1021.9 hPa South 17.2 km/h 25.9 km/h 76 % 0 mm
10:24 19.1 °C 15 °C 1021.9 hPa South 10 km/h 14.8 km/h 77 % 0 mm
10:29 18.8 °C 14.7 °C 1021.9 hPa SSW 17.4 km/h 18.5 km/h 77 % 0 mm
10:34 18.9 °C 15 °C 1021.9 hPa SSW 11.4 km/h 16.7 km/h 78 % 0 mm
10:39 19.1 °C 15 °C 1021.9 hPa South 12.6 km/h 18.5 km/h 77 % 0 mm
10:44 19.5 °C 15.2 °C 1021.9 hPa South 10.1 km/h 18.5 km/h 76 % 0 mm
10:49 19.7 °C 14.9 °C 1021.9 hPa North 8.2 km/h 12.9 km/h 74 % 0 mm
10:54 20 °C 15 °C 1021.9 hPa SSW 13 km/h 14.8 km/h 73 % 0 mm
10:59 20.4 °C 14.9 °C 1021.9 hPa SSW 12.6 km/h 18.5 km/h 71 % 0 mm
11:04 20.4 °C 14.9 °C 1021.9 hPa SSW 14.3 km/h 20.4 km/h 71 % 0 mm
11:09 20.6 °C 15.1 °C 1021.9 hPa South 10.8 km/h 14.8 km/h 71 % 0 mm
11:14 20.9 °C 15 °C 1021.9 hPa SSE 10.1 km/h 20.4 km/h 69 % 0 mm
11:19 21 °C 14.9 °C 1021.9 hPa SSW 14.5 km/h 22.2 km/h 68 % 0 mm
11:24 21.3 °C 14.9 °C 1021.6 hPa SSW 12.1 km/h 16.1 km/h 67 % 0 mm
11:29 21.7 °C 15.1 °C 1021.6 hPa North 14 km/h 18.5 km/h 66 % 0 mm
11:34 22 °C 14.6 °C 1021.6 hPa North 13.5 km/h 25.9 km/h 63 % 0 mm
11:39 22.3 °C 14.7 °C 1021.6 hPa North 10.1 km/h 18.5 km/h 62 % 0 mm
11:44 22.6 °C 14.4 °C 1021.6 hPa SSW 12.7 km/h 18.5 km/h 60 % 0 mm
11:49 22.7 °C 14.3 °C 1021.6 hPa SSW 17.7 km/h 18.5 km/h 59 % 0 mm
11:55 23.1 °C 14.4 °C 1021.6 hPa SSW 16.7 km/h 24.1 km/h 58 % 0 mm
12:00 23.2 °C 14.4 °C 1021.2 hPa South 19.2 km/h 20.4 km/h 58 % 0 mm
12:05 23.2 °C 14.8 °C 1021.6 hPa South 12.9 km/h 20.4 km/h 59 % 0 mm
12:10 23.6 °C 14.6 °C 1021.6 hPa South 21.2 km/h 22.5 km/h 57 % 0 mm
12:15 23.2 °C 14.7 °C 1021.6 hPa South 17.9 km/h 31.5 km/h 59 % 0 mm
12:20 22.7 °C 14.8 °C 1021.6 hPa SW 22.4 km/h 24.1 km/h 61 % 0 mm
12:25 22.3 °C 14.4 °C 1021.6 hPa South 19.5 km/h 31.5 km/h 61 % 0 mm
12:30 22.3 °C 14.7 °C 1021.6 hPa South 16.3 km/h 25.9 km/h 62 % 0 mm
12:35 22.7 °C 14.5 °C 1021.6 hPa South 18 km/h 24.1 km/h 60 % 0 mm
12:40 22.9 °C 14.2 °C 1021.6 hPa SSW 16.1 km/h 20.4 km/h 58 % 0 mm
12:45 22.9 °C 14.2 °C 1021.6 hPa South 12.9 km/h 18.5 km/h 58 % 0 mm
12:50 23.1 °C 14.1 °C 1021.6 hPa SSW 19.5 km/h 29.6 km/h 57 % 0 mm
12:55 23.1 °C 14.4 °C 1021.6 hPa SSW 15.9 km/h 24.1 km/h 58 % 0 mm
13:00 23.2 °C 13.9 °C 1021.6 hPa SE 11.7 km/h 22.5 km/h 56 % 0 mm
13:05 23.7 °C 14.4 °C 1021.6 hPa North 10.8 km/h 14.8 km/h 56 % 0 mm
13:10 23.8 °C 13.9 °C 1021.6 hPa SSW 17.5 km/h 29.6 km/h 54 % 0 mm
13:15 23.7 °C 13.8 °C 1021.6 hPa SSW 11.6 km/h 18.5 km/h 54 % 0 mm
13:20 23.7 °C 13.5 °C 1021.2 hPa South 18.3 km/h 24.1 km/h 53 % 0 mm
13:25 23.9 °C 13.7 °C 1021.2 hPa South 13.5 km/h 18.5 km/h 53 % 0 mm
13:30 24 °C 13.8 °C 1021.2 hPa SSW 20.8 km/h 25.9 km/h 53 % 0 mm
13:35 23.9 °C 13.5 °C 1021.2 hPa South 19.5 km/h 27.8 km/h 52 % 0 mm
13:40 24 °C 13.8 °C 1021.2 hPa South 20.3 km/h 29.6 km/h 53 % 0 mm
13:45 23.8 °C 13.6 °C 1021.2 hPa SSW 17.2 km/h 25.9 km/h 53 % 0 mm
13:50 23.9 °C 13.7 °C 1021.2 hPa South 23.2 km/h 31.5 km/h 53 % 0 mm
13:55 24.1 °C 13.6 °C 1021.2 hPa North 17.1 km/h 25.9 km/h 52 % 0 mm
14:00 23.9 °C 13.4 °C 1021.2 hPa North 23.3 km/h 33.3 km/h 52 % 0 mm
14:05 23.8 °C 13.7 °C 1021.2 hPa SSW 12.4 km/h 18.5 km/h 53 % 0 mm
14:10 23.4 °C 13.3 °C 1021.2 hPa SSW 22.7 km/h 33.3 km/h 53 % 0 mm
14:15 23.1 °C 13.3 °C 1020.9 hPa South 18 km/h 25.9 km/h 54 % 0 mm
14:20 23.3 °C 13.4 °C 1020.9 hPa SSW 16.1 km/h 27.8 km/h 54 % 0 mm
14:25 23.8 °C 13.3 °C 1020.9 hPa SSW 20.6 km/h 29.6 km/h 52 % 0 mm
14:30 23.8 °C 13.3 °C 1020.9 hPa South 21.9 km/h 31.5 km/h 52 % 0 mm
14:35 23.9 °C 13.4 °C 1020.9 hPa SW 20.6 km/h 22.2 km/h 52 % 0 mm
14:40 23.9 °C 13.1 °C 1020.9 hPa SSW 22.9 km/h 35.2 km/h 51 % 0 mm
14:45 23.9 °C 13.5 °C 1020.5 hPa SSW 16.4 km/h 22.2 km/h 52 % 0 mm
14:50 24.3 °C 13.6 °C 1020.5 hPa SW 14 km/h 27.8 km/h 51 % 0 mm
14:55 24.2 °C 13.4 °C 1020.5 hPa South 19.3 km/h 20.4 km/h 51 % 0 mm
15:00 24 °C 13.6 °C 1020.5 hPa South 19.5 km/h 33.3 km/h 52 % 0 mm
15:05 23.9 °C 14 °C 1020.5 hPa South 13 km/h 22.2 km/h 54 % 0 mm
15:10 23.7 °C 13.8 °C 1020.5 hPa North 20.6 km/h 25.9 km/h 54 % 0 mm
15:15 23.7 °C 13.6 °C 1020.5 hPa SSW 24.6 km/h 31.5 km/h 53 % 0 mm
15:20 23.4 °C 13.6 °C 1020.5 hPa SSW 16.6 km/h 31.5 km/h 54 % 0 mm
15:25 23.3 °C 13.5 °C 1020.5 hPa South 24.3 km/h 25.9 km/h 54 % 0 mm
15:30 23.3 °C 13.2 °C 1020.5 hPa South 17.7 km/h 27.8 km/h 53 % 0 mm
15:35 23.3 °C 13.2 °C 1020.5 hPa South 17.9 km/h 31.5 km/h 53 % 0 mm
15:40 23.2 °C 13.1 °C 1020.5 hPa SSE 16.3 km/h 24.1 km/h 53 % 0 mm
15:45 23.4 °C 13.6 °C 1020.5 hPa South 16.3 km/h 31.5 km/h 54 % 0 mm
15:50 23.3 °C 13.5 °C 1020.9 hPa SW 21.1 km/h 22.2 km/h 54 % 0 mm
15:55 23.2 °C 13.4 °C 1020.9 hPa SW 18.5 km/h 29.6 km/h 54 % 0 mm
16:00 23.1 °C 13.5 °C 1020.9 hPa SSW 20.8 km/h 31.5 km/h 55 % 0 mm
16:05 22.9 °C 13.4 °C 1020.9 hPa South 17.1 km/h 31.5 km/h 55 % 0 mm
16:10 22.8 °C 13.1 °C 1020.5 hPa SSE 19.6 km/h 31.5 km/h 54 % 0 mm
16:15 23 °C 12.9 °C 1020.5 hPa South 9.7 km/h 16.7 km/h 53 % 0 mm
16:20 23.1 °C 12.7 °C 1020.5 hPa ESE 10.9 km/h 19.3 km/h 52 % 0 mm
16:25 23.2 °C 12.8 °C 1020.5 hPa SSE 15.6 km/h 31.5 km/h 52 % 0 mm
16:30 23.2 °C 12.8 °C 1020.5 hPa South 9.7 km/h 31.5 km/h 52 % 0 mm
16:35 23.3 °C 12.6 °C 1020.5 hPa SSW 14.6 km/h 22.2 km/h 51 % 0 mm
16:40 23.4 °C 12.7 °C 1020.2 hPa SE 17.7 km/h 24.1 km/h 51 % 0 mm
16:45 23.4 °C 12.4 °C 1020.5 hPa SSW 10.9 km/h 19.3 km/h 50 % 0 mm
16:50 23.4 °C 12.4 °C 1020.2 hPa SW 18.2 km/h 25.9 km/h 50 % 0 mm
16:55 23.3 °C 12.3 °C 1020.2 hPa SSE 7.4 km/h 14.8 km/h 50 % 0 mm
17:00 23.1 °C 12.1 °C 1020.2 hPa SSE 21.7 km/h 29.6 km/h 50 % 0 mm
17:05 23.2 °C 12.2 °C 1020.2 hPa SSW 19.2 km/h 20.4 km/h 50 % 0 mm
17:10 23.3 °C 11.9 °C 1020.2 hPa SSE 18 km/h 22.2 km/h 49 % 0 mm
17:15 22.8 °C 11.9 °C 1020.2 hPa SSW 23.7 km/h 29.6 km/h 50 % 0 mm
17:20 22.6 °C 11.6 °C 1020.2 hPa SSE 20.4 km/h 27.8 km/h 50 % 0 mm
17:25 22.7 °C 11.7 °C 1020.2 hPa South 10.9 km/h 18.5 km/h 50 % 0 mm
17:30 22.9 °C 11.9 °C 1020.2 hPa SE 14 km/h 22.5 km/h 50 % 0 mm
17:35 22.8 °C 11.6 °C 1020.2 hPa South 13.8 km/h 29.6 km/h 49 % 0 mm
17:40 22.7 °C 11.7 °C 1020.2 hPa SSW 15.6 km/h 24.1 km/h 50 % 0 mm
17:45 22.6 °C 11.3 °C 1020.2 hPa North 13.7 km/h 18.5 km/h 49 % 0 mm
17:50 22.6 °C 11.6 °C 1020.2 hPa SSE 13.7 km/h 25.9 km/h 50 % 0 mm
17:56 22.5 °C 11.6 °C 1020.2 hPa SSE 10.9 km/h 24.1 km/h 50 % 0 mm
18:01 22.3 °C 11.4 °C 1020.2 hPa South 18 km/h 27.8 km/h 50 % 0 mm
18:06 22.2 °C 11.6 °C 1020.5 hPa South 14.3 km/h 29.6 km/h 51 % 0 mm
18:11 22.1 °C 11.4 °C 1020.5 hPa South 26.1 km/h 35.4 km/h 51 % 0 mm
18:16 21.8 °C 11.2 °C 1020.5 hPa South 17.1 km/h 27.8 km/h 51 % 0 mm
18:21 21.6 °C 11.3 °C 1020.5 hPa South 14 km/h 24.1 km/h 52 % 0 mm
18:26 21.2 °C 11.2 °C 1020.9 hPa South 15.1 km/h 27.4 km/h 53 % 0 mm
18:31 21 °C 11.1 °C 1020.9 hPa SSW 17.9 km/h 24.1 km/h 53 % 0 mm
18:36 20.8 °C 10.9 °C 1020.9 hPa South 15.3 km/h 24.1 km/h 53 % 0 mm
18:41 20.7 °C 10.7 °C 1020.9 hPa North 16.6 km/h 25.7 km/h 53 % 0 mm
18:46 20.5 °C 10.6 °C 1020.9 hPa North 13.5 km/h 25.9 km/h 53 % 0 mm
18:51 20.3 °C 10.4 °C 1020.9 hPa South 16.9 km/h 31.5 km/h 53 % 0 mm
18:56 20.1 °C 10.2 °C 1020.9 hPa SSW 18.5 km/h 29.6 km/h 53 % 0 mm
19:01 19.8 °C 10.2 °C 1020.9 hPa SSW 24.6 km/h 35.2 km/h 54 % 0 mm
19:06 19.5 °C 10.2 °C 1021.2 hPa South 18.2 km/h 27.8 km/h 55 % 0 mm
19:11 19.3 °C 10 °C 1021.2 hPa South 16.7 km/h 24.1 km/h 55 % 0 mm
19:16 19.1 °C 10.1 °C 1021.2 hPa SSW 22.4 km/h 35.2 km/h 56 % 0 mm
19:21 18.7 °C 10 °C 1021.6 hPa South 16.9 km/h 27.8 km/h 57 % 0 mm
19:26 18.4 °C 10 °C 1021.6 hPa South 17.2 km/h 25.9 km/h 58 % 0 mm
19:31 18.2 °C 9.8 °C 1021.6 hPa SSW 19.3 km/h 31.5 km/h 58 % 0 mm
19:36 17.8 °C 9.7 °C 1021.6 hPa South 21.6 km/h 40.7 km/h 59 % 0 mm
19:41 17.6 °C 9.7 °C 1021.6 hPa South 23.2 km/h 40.7 km/h 60 % 0 mm
19:46 17.3 °C 9.4 °C 1021.6 hPa South 15.6 km/h 27.8 km/h 60 % 0 mm
19:51 17.1 °C 9.5 °C 1021.9 hPa South 13.4 km/h 19.3 km/h 61 % 0 mm
19:56 16.8 °C 9.4 °C 1021.9 hPa SSW 18.2 km/h 25.9 km/h 62 % 0 mm
20:01 16.6 °C 9.5 °C 1021.9 hPa SSW 16.1 km/h 20.9 km/h 63 % 0 mm
20:06 16.4 °C 9.3 °C 1021.9 hPa South 15.6 km/h 22.2 km/h 63 % 0 mm
20:11 16.2 °C 9.1 °C 1021.9 hPa SSW 17.7 km/h 24.1 km/h 63 % 0 mm
20:16 15.9 °C 9.1 °C 1021.9 hPa South 11.4 km/h 18.5 km/h 64 % 0 mm
20:21 15.7 °C 8.9 °C 1022.2 hPa SSW 14 km/h 27.8 km/h 64 % 0 mm
20:26 15.6 °C 8.8 °C 1022.2 hPa South 11.9 km/h 18.5 km/h 64 % 0 mm
20:31 15.4 °C 8.8 °C 1022.2 hPa South 10.1 km/h 16.7 km/h 65 % 0 mm
20:36 15.2 °C 8.7 °C 1022.2 hPa SSW 13.5 km/h 18.5 km/h 65 % 0 mm
20:41 15 °C 8.7 °C 1022.6 hPa South 13.5 km/h 22.2 km/h 66 % 0 mm
20:46 14.8 °C 8.8 °C 1022.6 hPa South 13.5 km/h 24.1 km/h 67 % 0 mm
20:51 14.7 °C 8.6 °C 1022.6 hPa SSW 14.3 km/h 20.4 km/h 67 % 0 mm
20:56 14.5 °C 8.7 °C 1022.6 hPa SSW 10.6 km/h 18.5 km/h 68 % 0 mm
21:01 14.3 °C 8.5 °C 1022.6 hPa North 12.1 km/h 25.9 km/h 68 % 0 mm
21:06 14.2 °C 8.6 °C 1022.9 hPa South 15.6 km/h 20.4 km/h 69 % 0 mm
21:11 14.1 °C 8.4 °C 1022.9 hPa South 14.8 km/h 18.5 km/h 69 % 0 mm
21:16 13.9 °C 8.5 °C 1022.9 hPa SSE 11.9 km/h 20.4 km/h 70 % 0 mm
21:21 13.8 °C 8.4 °C 1022.9 hPa North 12.6 km/h 16.7 km/h 70 % 0 mm
21:26 13.6 °C 8.4 °C 1023.2 hPa South 13.7 km/h 18.5 km/h 71 % 0 mm
21:31 13.4 °C 8.4 °C 1023.2 hPa SSW 9.8 km/h 18.5 km/h 72 % 0 mm
21:36 13.3 °C 8.6 °C 1023.2 hPa South 17.7 km/h 25.9 km/h 73 % 0 mm
21:41 13.2 °C 8.4 °C 1023.2 hPa South 13.5 km/h 24.1 km/h 73 % 0 mm
21:46 13.1 °C 8.3 °C 1023.2 hPa SSW 16.3 km/h 22.2 km/h 73 % 0 mm
21:51 13 °C 8.4 °C 1023.2 hPa SSW 12.9 km/h 16.7 km/h 74 % 0 mm
21:56 12.9 °C 8.4 °C 1023.2 hPa North 13 km/h 22.2 km/h 74 % 0 mm
22:01 12.8 °C 8.3 °C 1023.2 hPa SSE 14.6 km/h 20.9 km/h 74 % 0 mm
22:06 12.6 °C 8.3 °C 1023.2 hPa North 9.7 km/h 14.8 km/h 75 % 0 mm
22:11 12.5 °C 8.2 °C 1023.2 hPa North 14.3 km/h 18.5 km/h 75 % 0 mm
22:16 12.4 °C 8.1 °C 1023.2 hPa South 15.1 km/h 20.4 km/h 75 % 0 mm
22:21 12.3 °C 8.2 °C 1023.2 hPa South 16.1 km/h 24.1 km/h 76 % 0 mm
22:26 12.2 °C 8.1 °C 1023.2 hPa South 11.3 km/h 16.7 km/h 76 % 0 mm
22:31 12.1 °C 8.2 °C 1023.2 hPa South 13.7 km/h 18.5 km/h 77 % 0 mm
22:36 11.9 °C 8.1 °C 1023.2 hPa South 11.9 km/h 20.4 km/h 77 % 0 mm
22:41 11.8 °C 7.9 °C 1023.2 hPa South 6.4 km/h 13 km/h 77 % 0 mm
22:46 11.7 °C 7.8 °C 1023.2 hPa South 13.8 km/h 18.5 km/h 77 % 0 mm
22:51 11.7 °C 7.9 °C 1023.2 hPa North 10.8 km/h 16.7 km/h 78 % 0 mm
22:56 11.6 °C 7.8 °C 1023.2 hPa South 11.9 km/h 20.4 km/h 78 % 0 mm
23:01 11.4 °C 7.7 °C 1023.2 hPa South 13 km/h 18.5 km/h 78 % 0 mm
23:06 11.3 °C 7.8 °C 1023.2 hPa North 12.2 km/h 20.4 km/h 79 % 0 mm
23:11 11.2 °C 7.7 °C 1023.2 hPa South 8.7 km/h 18.5 km/h 79 % 0 mm
23:16 11.2 °C 7.7 °C 1023.2 hPa South 11.9 km/h 18.5 km/h 79 % 0 mm
23:21 11.1 °C 7.6 °C 1023.2 hPa North 11.4 km/h 16.7 km/h 79 % 0 mm
23:26 11 °C 7.7 °C 1023.2 hPa South 9.8 km/h 14.5 km/h 80 % 0 mm
23:31 10.9 °C 7.6 °C 1023.2 hPa South 8.9 km/h 16.1 km/h 80 % 0 mm
23:36 10.8 °C 7.5 °C 1022.9 hPa North 12.7 km/h 20.4 km/h 80 % 0 mm
23:41 10.8 °C 7.7 °C 1022.9 hPa North 10.5 km/h 18.5 km/h 81 % 0 mm
23:50 10.6 °C 7.5 °C 1022.9 hPa South 8.9 km/h 14.8 km/h 81 % 0 mm
23:55 10.6 °C 7.7 °C 1022.9 hPa North 10.6 km/h 16.7 km/h 82 % 0 mm
Ararat Weather
Compliments of Weather Underground - 2.25 mb
Click here to send mail.


ABOUT

Live weather data from Ararat, Victoria, Australia, 3377
Data uploaded from Cumulus every 5 minutes to Weather Underground.
This site then downloads the raw data for formatting and display.
Metric and imperial data can be displayed. Graphs and historical data available.
Includes Sun and Moon times and rain image live from BOM.

Check out Ararat Weather on Facebook, Twitter and Google +

Help support ongoing costs by checking out the ads





Follow @AraratWeather